Fujairah International Airport
OMFJ : now visible

Airfield :











YOU CAN JOIN US ON...

 
LOGIN :

Register | Disclaimer

   EN    FR    IT 

 









Legend :    VFR   Marginal VFR   IFR   Intensive IFR   Very Intensive IFR
Visi :
Ceiling :
>= 8 km
>= 3000ft
5 to 8 km
1000 to 3000 ft
1500m to 5 km
500 to 1000 ft
800 to 1500m
200 to 500 ft
< 800m
< 200 ft
Symbols :   Thunderstorms  Fog  Heavy snow  Heavy precipitations  Wind > 20 kt







- Airport Elevation : 152 ft
- IATA code : FJR


OMFJ - Fujairah International

CURRENT METAR :
  • 180600Z 11007KT 090V160 5000 HZ NSC 35/28 Q0998 A2949

EXPIRED METARs :
  • 180500Z 12004KT 040V160 5000 HZ NSC 34/30 Q0998 RMK A2949
  • 180400Z 07003KT 340V130 5000 HZ FEW018 33/30 Q0998 RMK A2948

TAF TAF OMFJ
Valid from the 18 at 00:00 until the 19 at 06:00 UTC


172300Z 1800/1906 VRB03KT 7000 NSC
PROB40 1800/1803 5000 HZ FEW018
BECMG 1804/1806 08008KT
BECMG 1814/1816 15005KT
BECMG 1819/1821 VRB03KT 5000 HZ
OMAE FIR / Asia



MET'MAP, your aeronautical weather chart ! - Copyright ORBIFLY December 2007 - Disclaimer

ORBIFLY MET'MAP TEAM :

Programming & Development : Alexandra Zaïnal
Concept & Development : Baudouin d'Aumeries
Co-Development & Prog : Marc-Olivier Méhu
Technical & hardware support : Manuel Goepfert

Contact : metmap@orbifly.com




SOURCES & CREDITS :

   NOAA       Earth
Advisory